Location: Helsinki
(60.1699°N, 24.9384°E)
Time: 22:18:38
(UTC+03:00)

Altair - Visible Passes

Search period start: 02 October 2022 00:00
Search period end: 12 October 2022 00:00
Orbit: 1501 x 1682 km, 47.2° (Epoch: 02 October)

Date Brightness Start Highest point End Pass type
(mag) Time Alt. Az. Time Alt. Az. Time Alt. Az.
02 Oct 9.4 06:04:24 10° S 06:11:08 21° SE 06:18:00 10° E visible
03 Oct 9.4 05:39:41 10° S 05:46:07 20° SE 05:52:42 10° E visible
04 Oct 9.4 05:15:00 10° S 05:21:07 19° SE 05:27:22 10° E visible
05 Oct 9.4 04:50:23 10° S 04:56:08 18° SE 05:01:59 10° E visible
05 Oct 8.9 06:50:04 10° SW 06:58:25 33° SSE 07:07:00 10° E visible
06 Oct 9.4 04:25:48 10° SSE 04:31:09 16° SE 04:36:34 10° E visible
06 Oct 8.9 06:25:07 10° SW 06:33:22 32° SSE 06:41:49 10° E visible
07 Oct 9.3 04:01:19 10° SSE 04:06:10 15° SE 04:11:06 10° E visible
07 Oct 8.8 06:00:11 10° SSW 06:08:18 31° SSE 06:16:37 10° E visible
08 Oct 9.3 03:36:55 10° SSE 03:41:12 14° SE 03:45:33 10° ESE visible
08 Oct 8.8 05:35:16 10° SSW 05:43:15 30° SSE 05:51:26 10° E visible
09 Oct 9.3 03:13:07 11° SSE 03:16:15 13° SE 03:19:52 10° ESE visible
09 Oct 8.8 05:11:09 12° SSW 05:18:11 29° SSE 05:26:14 10° E visible
10 Oct 9.3 02:49:29 11° SE 02:51:18 11° SE 02:53:58 10° ESE visible
10 Oct 8.8 04:47:31 16° SSW 04:53:08 28° SSE 05:01:01 10° E visible
10 Oct 8.5 06:47:16 10° WSW 06:55:59 39° S 07:04:58 10° ESE visible
11 Oct 9.4 02:25:49 10° SE 02:26:21 10° SE 02:27:16 10° ESE visible
11 Oct 8.8 04:23:51 19° S 04:28:06 27° SSE 04:35:48 10° E visible
11 Oct 8.5 06:22:14 10° SW 06:30:54 38° S 06:39:49 10° ESE visible
